����������;��������(kVARh)
2019-02-11 00:00;1,05
2019-02-11 00:15;1
2019-02-11 00:30;2,05
2019-02-11 00:45;2,45
2019-02-11 01:00;2,95
2019-02-11 01:15;2,7
2019-02-11 01:30;3,55
2019-02-11 01:45;2,7
2019-02-11 02:00;2,2
2019-02-11 02:15;2,3
2019-02-11 02:30;2,65
2019-02-11 02:45;3,3
2019-02-11 03:00;2,15
2019-02-11 03:15;5,1
2019-02-11 03:30;13,85
2019-02-11 03:45;14,75
2019-02-11 04:00;14,25
2019-02-11 04:15;14,25
2019-02-11 04:30;15
2019-02-11 04:45;13,35
2019-02-11 05:00;15,35
2019-02-11 05:15;15,1
2019-02-11 05:30;15
2019-02-11 05:45;13,1
2019-02-11 06:00;10,6
2019-02-11 06:15;13,6
2019-02-11 06:30;14,9
2019-02-11 06:45;12,9
2019-02-11 07:00;12,9
2019-02-11 07:15;14,65
2019-02-11 07:30;13,6
2019-02-11 07:45;16,9
2019-02-11 08:00;19,95
2019-02-11 08:15;26,75
2019-02-11 08:30;53,5
2019-02-11 08:45;39,4
2019-02-11 09:00;35,1
2019-02-11 09:15;40,55
2019-02-11 09:30;43,1
2019-02-11 09:45;39,25
2019-02-11 10:00;40,75
2019-02-11 10:15;41,75
2019-02-11 10:30;49,3
2019-02-11 10:45;50,65
2019-02-11 11:00;65,6
2019-02-11 11:15;71,1
2019-02-11 11:30;67,3
2019-02-11 11:45;68,95
2019-02-11 12:00;67,95
2019-02-11 12:15;66,85
2019-02-11 12:30;65,9
2019-02-11 12:45;62,2
2019-02-11 13:00;69,65
2019-02-11 13:15;61,6
2019-02-11 13:30;63,7
2019-02-11 13:45;59,8
2019-02-11 14:00;58,15
2019-02-11 14:15;60,25
2019-02-11 14:30;62,2
2019-02-11 14:45;56,95
2019-02-11 15:00;50,3
2019-02-11 15:15;51,25
2019-02-11 15:30;46,7
2019-02-11 15:45;45
2019-02-11 16:00;45,85
2019-02-11 16:15;35,65
2019-02-11 16:30;44,15
2019-02-11 16:45;40,4
2019-02-11 17:00;36,2
2019-02-11 17:15;40,45
2019-02-11 17:30;35,35
2019-02-11 17:45;30,95
2019-02-11 18:00;36,3
2019-02-11 18:15;21,1
2019-02-11 18:30;17,6
2019-02-11 18:45;24
2019-02-11 19:00;24,4
2019-02-11 19:15;17,25
2019-02-11 19:30;16,55
2019-02-11 19:45;17,6
2019-02-11 20:00;17,5
2019-02-11 20:15;13,15
2019-02-11 20:30;8,35
2019-02-11 20:45;7,8
2019-02-11 21:00;4,5
2019-02-11 21:15;2,3
2019-02-11 21:30;0,45
2019-02-11 21:45;0
2019-02-11 22:00;0
2019-02-11 22:15;0
2019-02-11 22:30;0
2019-02-11 22:45;0
2019-02-11 23:00;0,7
2019-02-11 23:15;0,05
2019-02-11 23:30;0
2019-02-11 23:45;1,1
2019-02-12 00:00;0,6
2019-02-12 00:15;0,95
2019-02-12 00:30;1,1
2019-02-12 00:45;2,85
2019-02-12 01:00;4,4
2019-02-12 01:15;7,45
2019-02-12 01:30;8,45
2019-02-12 01:45;9,5
2019-02-12 02:00;8,45
2019-02-12 02:15;8,9
2019-02-12 02:30;9,55
2019-02-12 02:45;11
2019-02-12 03:00;10,6
2019-02-12 03:15;10,6
2019-02-12 03:30;10,4
2019-02-12 03:45;10,7
2019-02-12 04:00;11,85
2019-02-12 04:15;11,8
2019-02-12 04:30;12,35
2019-02-12 04:45;12,6
2019-02-12 05:00;11,7
2019-02-12 05:15;7,5
2019-02-12 05:30;6,7
2019-02-12 05:45;7,5
2019-02-12 06:00;6,35
2019-02-12 06:15;15
2019-02-12 06:30;14,7
2019-02-12 06:45;14,4
2019-02-12 07:00;13,4
2019-02-12 07:15;11,3
2019-02-12 07:30;34,95
2019-02-12 07:45;28,1
2019-02-12 08:00;20,1
2019-02-12 08:15;26,3
2019-02-12 08:30;27,4
2019-02-12 08:45;43,1
2019-02-12 09:00;45
2019-02-12 09:15;49,45
2019-02-12 09:30;57
2019-02-12 09:45;53,45
2019-02-12 10:00;49,25
2019-02-12 10:15;45,85
2019-02-12 10:30;48,7
2019-02-12 10:45;53,35
2019-02-12 11:00;53,45
2019-02-12 11:15;57,8
2019-02-12 11:30;55,25
2019-02-12 11:45;64,95
2019-02-12 12:00;62,85
2019-02-12 12:15;56,5
2019-02-12 12:30;63,65
2019-02-12 12:45;59,7
2019-02-12 13:00;62,05
2019-02-12 13:15;60,35
2019-02-12 13:30;64,95
2019-02-12 13:45;63,95
2019-02-12 14:00;58,2
2019-02-12 14:15;63,85
2019-02-12 14:30;57,95
2019-02-12 14:45;60,85
2019-02-12 15:00;64,05
2019-02-12 15:15;58,35
2019-02-12 15:30;62,1
2019-02-12 15:45;55,35
2019-02-12 16:00;59,35
2019-02-12 16:15;52,9
2019-02-12 16:30;52,55
2019-02-12 16:45;56,45
2019-02-12 17:00;49,95
2019-02-12 17:15;54,1
2019-02-12 17:30;44,6
2019-02-12 17:45;46,5
2019-02-12 18:00;42,3
2019-02-12 18:15;33,3
2019-02-12 18:30;26,8
2019-02-12 18:45;25,05
2019-02-12 19:00;24,45
2019-02-12 19:15;24,45
2019-02-12 19:30;21,85
2019-02-12 19:45;18,1
2019-02-12 20:00;17,25
2019-02-12 20:15;13,55
2019-02-12 20:30;12,6
2019-02-12 20:45;11,9
2019-02-12 21:00;11
2019-02-12 21:15;12,25
2019-02-12 21:30;12,95
2019-02-12 21:45;10,7
2019-02-12 22:00;9,65
2019-02-12 22:15;8,35
2019-02-12 22:30;4,5
2019-02-12 22:45;4,1
2019-02-12 23:00;6,1
2019-02-12 23:15;2,4
2019-02-12 23:30;3,25
2019-02-12 23:45;2,1
2019-02-13 00:00;0,6
2019-02-13 00:15;0,3
2019-02-13 00:30;0,8
2019-02-13 00:45;4
2019-02-13 01:00;12,5
2019-02-13 01:15;12,1
2019-02-13 01:30;11,25
2019-02-13 01:45;11,45
2019-02-13 02:00;10,3
2019-02-13 02:15;11,7
2019-02-13 02:30;9,05
2019-02-13 02:45;11,45
2019-02-13 03:00;12,2
2019-02-13 03:15;9,75
2019-02-13 03:30;6,2
2019-02-13 03:45;7,5
2019-02-13 04:00;7,4
2019-02-13 04:15;7,55
2019-02-13 04:30;11,1
2019-02-13 04:45;8,55
2019-02-13 05:00;9,55
2019-02-13 05:15;9,6
2019-02-13 05:30;9,25
2019-02-13 05:45;7,5
2019-02-13 06:00;8,4
2019-02-13 06:15;8
2019-02-13 06:30;7,5
2019-02-13 06:45;6,6
2019-02-13 07:00;11,75
2019-02-13 07:15;14,5
2019-02-13 07:30;41,15
2019-02-13 07:45;25,25
2019-02-13 08:00;35,25
2019-02-13 08:15;29,8
2019-02-13 08:30;36,1
2019-02-13 08:45;41,5
2019-02-13 09:00;44
2019-02-13 09:15;62,55
2019-02-13 09:30;61,55
2019-02-13 09:45;75,25
2019-02-13 10:00;74,85
2019-02-13 10:15;76,7
2019-02-13 10:30;76,75
2019-02-13 10:45;74
2019-02-13 11:00;77,75
2019-02-13 11:15;82,2
2019-02-13 11:30;84,25
2019-02-13 11:45;86,25
2019-02-13 12:00;84,5
2019-02-13 12:15;79,4
2019-02-13 12:30;86,5
2019-02-13 12:45;81,85
2019-02-13 13:00;88,75
2019-02-13 13:15;79,7
2019-02-13 13:30;80
2019-02-13 13:45;87,15
2019-02-13 14:00;79,4
2019-02-13 14:15;83,6
2019-02-13 14:30;75,7
2019-02-13 14:45;75,5
2019-02-13 15:00;71,5
2019-02-13 15:15;65,2
2019-02-13 15:30;66,7
2019-02-13 15:45;63,7
2019-02-13 16:00;67,05
2019-02-13 16:15;60,2
2019-02-13 16:30;54,15
2019-02-13 16:45;55
2019-02-13 17:00;53,9
2019-02-13 17:15;51,75
2019-02-13 17:30;40,1
2019-02-13 17:45;44,6
2019-02-13 18:00;40,65
2019-02-13 18:15;40,6
2019-02-13 18:30;37,25
2019-02-13 18:45;37,8
2019-02-13 19:00;36
2019-02-13 19:15;33,25
2019-02-13 19:30;32,25
2019-02-13 19:45;26,85
2019-02-13 20:00;28,05
2019-02-13 20:15;24,8
2019-02-13 20:30;23
2019-02-13 20:45;23,95
2019-02-13 21:00;23,4
2019-02-13 21:15;25,5
2019-02-13 21:30;26,15
2019-02-13 21:45;18,5
2019-02-13 22:00;20,2
2019-02-13 22:15;22,6
2019-02-13 22:30;25,95
2019-02-13 22:45;25,75
2019-02-13 23:00;28,05
2019-02-13 23:15;23,6
2019-02-13 23:30;23,9
2019-02-13 23:45;15,7
2019-02-14 00:00;11
2019-02-14 00:15;6,6
2019-02-14 00:30;5,15
2019-02-14 00:45;7,4
2019-02-14 01:00;8,45
2019-02-14 01:15;8,9
2019-02-14 01:30;15,35
2019-02-14 01:45;18,75
2019-02-14 02:00;19,5
2019-02-14 02:15;19,35
2019-02-14 02:30;20,7
2019-02-14 02:45;19,3
2019-02-14 03:00;18,65
2019-02-14 03:15;17,95
2019-02-14 03:30;18,15
2019-02-14 03:45;16,65
2019-02-14 04:00;16,9
2019-02-14 04:15;15,4
2019-02-14 04:30;14,7
2019-02-14 04:45;18,3
2019-02-14 05:00;16,95
2019-02-14 05:15;17,25
2019-02-14 05:30;18,4
2019-02-14 05:45;14,55
2019-02-14 06:00;15,45
2019-02-14 06:15;16,55
2019-02-14 06:30;20,05
2019-02-14 06:45;20,65
2019-02-14 07:00;24,8
2019-02-14 07:15;22,35
2019-02-14 07:30;53,45
2019-02-14 07:45;34,45
2019-02-14 08:00;37,15
2019-02-14 08:15;41,85
2019-02-14 08:30;46,45
2019-02-14 08:45;54,45
2019-02-14 09:00;56,5
2019-02-14 09:15;56,75
2019-02-14 09:30;65,25
2019-02-14 09:45;68,25
2019-02-14 10:00;68,4
2019-02-14 10:15;70,75
2019-02-14 10:30;70,2
2019-02-14 10:45;73,05
2019-02-14 11:00;76,1
2019-02-14 11:15;75,4
2019-02-14 11:30;80,35
2019-02-14 11:45;95,95
2019-02-14 12:00;90,85
2019-02-14 12:15;90,3
2019-02-14 12:30;86,35
2019-02-14 12:45;90,55
2019-02-14 13:00;85,1
2019-02-14 13:15;90,6
2019-02-14 13:30;84,45
2019-02-14 13:45;82,75
2019-02-14 14:00;81,5
2019-02-14 14:15;83,3
2019-02-14 14:30;85,1
2019-02-14 14:45;84,95
2019-02-14 15:00;90,55
2019-02-14 15:15;118
2019-02-14 15:30;89,65
2019-02-14 15:45;82,8
2019-02-14 16:00;78,2
2019-02-14 16:15;76,85
2019-02-14 16:30;80,8
2019-02-14 16:45;75,25
2019-02-14 17:00;73,7
2019-02-14 17:15;66,55
2019-02-14 17:30;57,75
2019-02-14 17:45;63,6
2019-02-14 18:00;55,25
2019-02-14 18:15;46,4
2019-02-14 18:30;36,5
2019-02-14 18:45;26,1
2019-02-14 19:00;25,5
2019-02-14 19:15;23,7
2019-02-14 19:30;25,45
2019-02-14 19:45;23,85
2019-02-14 20:00;20,95
2019-02-14 20:15;19,3
2019-02-14 20:30;18,15
2019-02-14 20:45;19,55
2019-02-14 21:00;19,85
2019-02-14 21:15;22,2
2019-02-14 21:30;23,85
2019-02-14 21:45;23,05
2019-02-14 22:00;23
2019-02-14 22:15;22,8
2019-02-14 22:30;22,55
2019-02-14 22:45;21,1
2019-02-14 23:00;22,55
2019-02-14 23:15;22,4
2019-02-14 23:30;22,6
2019-02-14 23:45;23,4
2019-02-15 00:00;24,25
2019-02-15 00:15;14,2
2019-02-15 00:30;13,55
2019-02-15 00:45;11,7
2019-02-15 01:00;13,45
2019-02-15 01:15;13,8
2019-02-15 01:30;15,4
2019-02-15 01:45;14,05
2019-02-15 02:00;28,3
2019-02-15 02:15;27,75
2019-02-15 02:30;27
2019-02-15 02:45;27,4
2019-02-15 03:00;28,85
2019-02-15 03:15;25
2019-02-15 03:30;25,85
2019-02-15 03:45;26,45
2019-02-15 04:00;26,2
2019-02-15 04:15;24,15
2019-02-15 04:30;24,7
2019-02-15 04:45;26,65
2019-02-15 05:00;27,3
2019-02-15 05:15;24,95
2019-02-15 05:30;22,45
2019-02-15 05:45;21,05
2019-02-15 06:00;20,7
2019-02-15 06:15;21,15
2019-02-15 06:30;22,35
2019-02-15 06:45;19,95
2019-02-15 07:00;21,15
2019-02-15 07:15;28,25
2019-02-15 07:30;56,85
2019-02-15 07:45;45,45
2019-02-15 08:00;46
2019-02-15 08:15;34,6
2019-02-15 08:30;41,2
2019-02-15 08:45;49,65
2019-02-15 09:00;51,7
2019-02-15 09:15;52,55
2019-02-15 09:30;56,3
2019-02-15 09:45;57,35
2019-02-15 10:00;61,75
2019-02-15 10:15;65,55
2019-02-15 10:30;67,45
2019-02-15 10:45;85,25
2019-02-15 11:00;98,05
2019-02-15 11:15;82,75
2019-02-15 11:30;93,1
2019-02-15 11:45;82,35
2019-02-15 12:00;79,15
2019-02-15 12:15;77,6
2019-02-15 12:30;91,45
2019-02-15 12:45;88,9
2019-02-15 13:00;82,1
2019-02-15 13:15;87,05
2019-02-15 13:30;79,1
2019-02-15 13:45;80,2
2019-02-15 14:00;76,65
2019-02-15 14:15;73,05
2019-02-15 14:30;75,45
2019-02-15 14:45;74,1
2019-02-15 15:00;73,25
2019-02-15 15:15;71,85
2019-02-15 15:30;71,25
2019-02-15 15:45;89,9
2019-02-15 16:00;79,95
2019-02-15 16:15;69,85
2019-02-15 16:30;73,15
2019-02-15 16:45;54,2
2019-02-15 17:00;51,5
2019-02-15 17:15;48,45
2019-02-15 17:30;42,9
2019-02-15 17:45;36,2
2019-02-15 18:00;34,55
2019-02-15 18:15;32,95
2019-02-15 18:30;30,15
2019-02-15 18:45;25,35
2019-02-15 19:00;23,9
2019-02-15 19:15;22,25
2019-02-15 19:30;20,45
2019-02-15 19:45;16,9
2019-02-15 20:00;8,3
2019-02-15 20:15;9,8
2019-02-15 20:30;6,55
2019-02-15 20:45;6
2019-02-15 21:00;3,9
2019-02-15 21:15;3,85
2019-02-15 21:30;5,45
2019-02-15 21:45;4,65
2019-02-15 22:00;3,95
2019-02-15 22:15;5,35
2019-02-15 22:30;6,15
2019-02-15 22:45;4,3
2019-02-15 23:00;0,2
2019-02-15 23:15;0,15
2019-02-15 23:30;0,1
2019-02-15 23:45;0,65
2019-02-16 00:00;0
2019-02-16 00:15;0
2019-02-16 00:30;0
2019-02-16 00:45;0
2019-02-16 01:00;0
2019-02-16 01:15;0
2019-02-16 01:30;0
2019-02-16 01:45;0
2019-02-16 02:00;0
2019-02-16 02:15;0
2019-02-16 02:30;0
2019-02-16 02:45;0
2019-02-16 03:00;0
2019-02-16 03:15;0
2019-02-16 03:30;0
2019-02-16 03:45;0
2019-02-16 04:00;0
2019-02-16 04:15;0
2019-02-16 04:30;0
2019-02-16 04:45;0
2019-02-16 05:00;0
2019-02-16 05:15;0
2019-02-16 05:30;0
2019-02-16 05:45;0
2019-02-16 06:00;0
2019-02-16 06:15;0,35
2019-02-16 06:30;0
2019-02-16 06:45;0
2019-02-16 07:00;0
2019-02-16 07:15;0,85
2019-02-16 07:30;0
2019-02-16 07:45;0
2019-02-16 08:00;0
2019-02-16 08:15;1,2
2019-02-16 08:30;0,15
2019-02-16 08:45;0,05
2019-02-16 09:00;0,45
2019-02-16 09:15;0
2019-02-16 09:30;0
2019-02-16 09:45;0
2019-02-16 10:00;0
2019-02-16 10:15;0
2019-02-16 10:30;0
2019-02-16 10:45;0
2019-02-16 11:00;0
2019-02-16 11:15;0,05
2019-02-16 11:30;0
2019-02-16 11:45;0
2019-02-16 12:00;0
2019-02-16 12:15;0,05
2019-02-16 12:30;0,2
2019-02-16 12:45;0,75
2019-02-16 13:00;2,45
2019-02-16 13:15;1,75
2019-02-16 13:30;2,4
2019-02-16 13:45;3,4
2019-02-16 14:00;3,7
2019-02-16 14:15;3,95
2019-02-16 14:30;6,2
2019-02-16 14:45;10,1
2019-02-16 15:00;8,55
2019-02-16 15:15;8,6
2019-02-16 15:30;8,6
2019-02-16 15:45;9,65
2019-02-16 16:00;7,3
2019-02-16 16:15;8,2
2019-02-16 16:30;8,3
2019-02-16 16:45;9,15
2019-02-16 17:00;9,8
2019-02-16 17:15;8,3
2019-02-16 17:30;7,4
2019-02-16 17:45;9,55
2019-02-16 18:00;10,3
2019-02-16 18:15;9,8
2019-02-16 18:30;8,25
2019-02-16 18:45;10,2
2019-02-16 19:00;8,55
2019-02-16 19:15;8,35
2019-02-16 19:30;8,1
2019-02-16 19:45;8,5
2019-02-16 20:00;6,7
2019-02-16 20:15;6,3
2019-02-16 20:30;5,85
2019-02-16 20:45;6,65
2019-02-16 21:00;7,1
2019-02-16 21:15;6,5
2019-02-16 21:30;6,05
2019-02-16 21:45;1,25
2019-02-16 22:00;0,85
2019-02-16 22:15;3,15
2019-02-16 22:30;4,8
2019-02-16 22:45;4,25
2019-02-16 23:00;4,8
2019-02-16 23:15;3,95
2019-02-16 23:30;5,2
2019-02-16 23:45;7,4
2019-02-17 00:00;6
2019-02-17 00:15;8,8
2019-02-17 00:30;2,05
2019-02-17 00:45;1,4
2019-02-17 01:00;3,95
2019-02-17 01:15;5,45
2019-02-17 01:30;5,15
2019-02-17 01:45;6,15
2019-02-17 02:00;6,1
2019-02-17 02:15;2,65
2019-02-17 02:30;0
2019-02-17 02:45;0
2019-02-17 03:00;0,35
2019-02-17 03:15;0
2019-02-17 03:30;0
2019-02-17 03:45;0
2019-02-17 04:00;0,05
2019-02-17 04:15;0
2019-02-17 04:30;0,05
2019-02-17 04:45;0
2019-02-17 05:00;0,75
2019-02-17 05:15;0,1
2019-02-17 05:30;0,15
2019-02-17 05:45;0,2
2019-02-17 06:00;0
2019-02-17 06:15;0
2019-02-17 06:30;0
2019-02-17 06:45;0,05
2019-02-17 07:00;0
2019-02-17 07:15;0
2019-02-17 07:30;0,1
2019-02-17 07:45;0,05
2019-02-17 08:00;0,05
2019-02-17 08:15;0
2019-02-17 08:30;0
2019-02-17 08:45;0,15
2019-02-17 09:00;2,1
2019-02-17 09:15;1,6
2019-02-17 09:30;1,65
2019-02-17 09:45;1
2019-02-17 10:00;0,4
2019-02-17 10:15;0
2019-02-17 10:30;0
2019-02-17 10:45;0,15
2019-02-17 11:00;0,65
2019-02-17 11:15;0,45
2019-02-17 11:30;1,2
2019-02-17 11:45;0,25
2019-02-17 12:00;0,1
2019-02-17 12:15;0,25
2019-02-17 12:30;0,2
2019-02-17 12:45;0,35
2019-02-17 13:00;0,3
2019-02-17 13:15;0,25
2019-02-17 13:30;1,15
2019-02-17 13:45;0,75
2019-02-17 14:00;0,25
2019-02-17 14:15;0,25
2019-02-17 14:30;0,85
2019-02-17 14:45;1,55
2019-02-17 15:00;1,65
2019-02-17 15:15;2,15
2019-02-17 15:30;4,05
2019-02-17 15:45;3,6
2019-02-17 16:00;1,85
2019-02-17 16:15;1,65
2019-02-17 16:30;2,5
2019-02-17 16:45;2,05
2019-02-17 17:00;2,7
2019-02-17 17:15;1,4
2019-02-17 17:30;0,05
2019-02-17 17:45;0,15
2019-02-17 18:00;0
2019-02-17 18:15;0,1
2019-02-17 18:30;0
2019-02-17 18:45;0
2019-02-17 19:00;0,05
2019-02-17 19:15;0,05
2019-02-17 19:30;0,05
2019-02-17 19:45;0,05
2019-02-17 20:00;0,05
2019-02-17 20:15;0
2019-02-17 20:30;0
2019-02-17 20:45;0,1
2019-02-17 21:00;0,2
2019-02-17 21:15;0
2019-02-17 21:30;0
2019-02-17 21:45;0
2019-02-17 22:00;0
2019-02-17 22:15;0
2019-02-17 22:30;0
2019-02-17 22:45;0
2019-02-17 23:00;0,5
2019-02-17 23:15;0,1
2019-02-17 23:30;0
2019-02-17 23:45;0,9

